Location: Allos
(44.2333°N, 6.6333°E)
Time: 08:30:01
(UTC+00:00)

OBJECT F - Visible Passes

Search period start: 21 June 2021 00:00
Search period end: 01 July 2021 00:00
Orbit: 614 x 631 km, 97.9° (Epoch: 18 June)

Date Brightness Start Highest point End Pass type
(mag) Time Alt. Az. Time Alt. Az. Time Alt. Az.
21 Jun ? 21:31:59 32° SE 21:33:53 62° ENE 21:38:14 10° N visible
21 Jun ? 23:09:13 12° WSW 23:10:28 13° W 23:12:33 10° WNW visible
22 Jun ? 20:15:10 10° ENE 20:16:30 11° ENE 20:17:51 10° NE visible
22 Jun ? 21:50:18 37° S 21:51:59 85° WSW 21:56:24 10° NNW visible
23 Jun ? 20:31:39 10° ESE 20:34:23 17° ENE 20:37:09 10° NNE visible
23 Jun ? 22:08:37 35° SSW 22:10:07 54° W 22:14:26 10° NNW visible
24 Jun ? 20:49:42 14° ESE 20:52:19 24° ENE 20:55:50 10° NNE visible
24 Jun ? 22:26:56 28° SW 22:28:18 34° W 22:32:20 10° NNW visible
25 Jun ? 21:08:01 21° ESE 21:10:18 35° ENE 21:14:19 10° N visible
25 Jun ? 22:45:14 20° WSW 22:46:32 23° W 22:50:02 10° NW visible
26 Jun ? 21:26:20 29° SE 21:28:19 54° ENE 21:32:37 10° N visible
26 Jun ? 23:03:33 14° WSW 23:04:49 15° W 23:07:22 10° NW visible
27 Jun ? 21:44:39 36° SSE 21:46:24 84° ENE 21:50:48 10° NNW visible
28 Jun ? 20:26:26 10° E 20:28:52 15° ENE 20:31:19 10° NNE visible
28 Jun ? 22:02:58 37° SSW 22:04:31 62° W 22:08:53 10° NNW visible
29 Jun ? 20:44:04 13° ESE 20:46:47 21° ENE 20:50:07 10° NNE visible
29 Jun ? 22:21:18 31° SW 22:22:41 40° W 22:26:50 10° NNW visible
30 Jun ? 21:02:24 19° ESE 21:04:44 31° ENE 21:08:38 10° N visible
30 Jun ? 22:39:37 23° WSW 22:40:54 26° W 22:44:36 10° NW visible
